Edwards AFB North Base, CA

9:43 AM PDT on August 21, 2017 (GMT -0700)
Edwards AFB North Base

Weather History for K9L2 - February, 2014

Change the Weather History Date:

Tuesday, February 11, 2014

  Actual Average (KEDW) Record (KEDW)
Temperature  
Mean Temperature 50 °F -  
Max Temperature 66 °F 57 °F 72 °F (2016)
Min Temperature 33 °F 32 °F 20 °F (2011)
Degree Days  
Heating Degree Days 16    
Moisture  
Dew Point 31 °F    
Average Humidity 54    
Maximum Humidity 82    
Minimum Humidity 21    
Precipitation  
Precipitation 0.00 in - - ()
Sea Level Pressure  
Sea Level Pressure 30.14 in    
Wind  
Wind Speed 2 mph (South)    
Max Wind Speed 13 mph    
Max Gust Speed -    
Visibility 10 miles    
Events      
Averages and records for this station are not official NWS values.
T = Trace of Precipitation, MM = Missing Value Source: NWS Daily Summary

Daily Weather History Graph

Daily Weather History Graph

Search for Another Location

Airport or City:

Trip Planner

Search our weather history database for the weather conditions in past years. The results will help you decide how hot, cold, wet, or windy it might be!

Date:

Astronomy

Feb. 11, 2014 Rise Set
Actual Time 6:41 AM PST 5:30 PM PST
Civil Twilight 6:15 AM PST 5:56 PM PST
Nautical Twilight 5:45 AM PST 6:26 PM PST
Astronomical Twilight 5:16 AM PST 6:55 PM PST
Moon 2:57 PM PST (2/11) 4:18 AM PST (2/11)
Length of Visible Light 11h 41m
Length of Day
10h 49m
Waxing Gibbous, 91% of the Moon is Illuminated
Feb 11
Waxing Gibbous
Feb 14
Full
Feb 22
Last Quarter
Mar 1
New
Mar 8
First Quarter

Hourly Weather History & Observations

Time (PST) Temp. Windchill Dew Point Humidity Pressure Visibility Wind Dir Wind Speed Gust Speed Precip Events Conditions
12:55 AM 39.9 °F - 30.9 °F 70% 30.13 in 10.0 mi Calm Calm - N/A   Clear
1:55 AM 39.9 °F 36.7 °F 30.9 °F 70% 30.13 in 10.0 mi SSE 4.6 mph - N/A   Clear
2:55 AM 36.0 °F - 28.9 °F 76% 30.13 in 10.0 mi Calm Calm - N/A   Clear
3:55 AM 37.0 °F - 30.9 °F 79% 30.12 in 10.0 mi Calm Calm - N/A   Clear
4:55 AM 39.0 °F - 32.0 °F 76% 30.12 in 10.0 mi Calm Calm - N/A   Clear
5:55 AM 33.1 °F - 27.0 °F 78% 30.15 in 10.0 mi Calm Calm - N/A   Clear
6:55 AM 35.1 °F - 30.0 °F 82% 30.17 in 9.0 mi Calm Calm - N/A   Clear
7:55 AM 42.1 °F - 36.0 °F 79% 30.17 in 9.0 mi Calm Calm - N/A   Clear
8:55 AM 46.9 °F - 39.0 °F 74% 30.19 in 10.0 mi South 3.5 mph - N/A   Unknown
9:55 AM 51.1 °F - 39.9 °F 66% 30.19 in 10.0 mi South 3.5 mph - N/A   Clear
10:55 AM 55.9 °F - 39.9 °F 55% 30.19 in 10.0 mi SE 3.5 mph - N/A   Clear
11:55 AM 60.1 °F - 37.9 °F 44% 30.16 in 10.0 mi Calm Calm - N/A   Clear
12:55 PM 64.0 °F - 34.0 °F 33% 30.12 in 10.0 mi Calm Calm - N/A   Clear
1:55 PM 66.0 °F - 32.0 °F 28% 30.10 in 10.0 mi SSE 5.8 mph - N/A   Clear
2:55 PM 66.9 °F - 32.0 °F 27% 30.09 in 10.0 mi South 5.8 mph - N/A   Clear
3:55 PM 66.9 °F - 30.9 °F 26% 30.09 in 10.0 mi SE 5.8 mph - N/A   Clear
4:55 PM 64.9 °F - 30.9 °F 28% 30.08 in 10.0 mi South 5.8 mph - N/A   Clear
5:55 PM 57.9 °F - 30.0 °F 35% 30.12 in 10.0 mi SSW 5.8 mph - N/A   Clear
6:55 PM 61.0 °F - 19.9 °F 21% 30.12 in 10.0 mi WSW 12.7 mph - N/A   Clear
7:55 PM 55.9 °F - 27.0 °F 33% 30.12 in 10.0 mi West 6.9 mph - N/A   Clear
8:55 PM 48.9 °F - 28.9 °F 46% 30.14 in 10.0 mi SE 4.6 mph - N/A   Clear
9:55 PM 46.0 °F - 28.0 °F 50% 30.17 in 10.0 mi Calm Calm - N/A   Clear
10:55 PM 41.0 °F 39.0 °F 26.1 °F 55% 30.18 in 10.0 mi NW 3.5 mph - N/A   Clear
11:55 PM 41.0 °F 37.1 °F 26.1 °F 55% 30.17 in 10.0 mi NNE 5.8 mph - N/A   Clear